• In Deutschland
  • Länderverzeichnis
  • Für 7 Tage
  • Wassertemperatur
  • Satellitenkarten
  • Wetterkarte
  • Widgets
  • user-avatar
    Anmelden

    Stündliche Wetter Bad Sulza

    Heute, 12 Dezember, Dienstag

    Zeit Temperatur Niederschläge Wind Luftdruck Luftfeuchtigkeit
    00:00 +4°C° 0,2 mm 6 m/S 722 mmHg 84%
    01:00 +4°C° 0 mm 4 m/S 723 mmHg 85%
    02:00 +3°C° 0 mm 6 m/S 723 mmHg 83%
    03:00 +3°C° 0 mm 7 m/S 724 mmHg 82%
    04:00 +2°C° 0 mm 8 m/S 724 mmHg 80%
    05:00 +2°C° 0 mm 8 m/S 725 mmHg 79%
    06:00 +1°C° 0 mm 8 m/S 726 mmHg 79%
    07:00 +1°C° 0 mm 8 m/S 727 mmHg 79%
    08:00 0°C° 0 mm 8 m/S 729 mmHg 78%
    09:00 0°C° 0 mm 8 m/S 730 mmHg 77%
    10:00 0°C° 0 mm 8 m/S 732 mmHg 76%
    11:00 0°C° 0 mm 8 m/S 733 mmHg 74%
    12:00 0°C° 0 mm 8 m/S 734 mmHg 71%
    13:00 0°C° 0 mm 8 m/S 735 mmHg 68%
    14:00 0°C° 0 mm 8 m/S 736 mmHg 70%
    15:00 0°C° 0 mm 7 m/S 737 mmHg 71%
    16:00 0°C° 0 mm 7 m/S 738 mmHg 73%
    17:00 -1°C° 0 mm 6 m/S 738 mmHg 76%
    18:00 -1°C° 0 mm 6 m/S 739 mmHg 79%
    19:00 -1°C° 0 mm 5 m/S 740 mmHg 81%
    20:00 -1°C° 0 mm 5 m/S 741 mmHg 83%
    21:00 -1°C° 0 mm 5 m/S 742 mmHg 85%
    22:00 -1°C° 0 mm 4 m/S 742 mmHg 87%
    23:00 -1°C° 0 mm 4 m/S 743 mmHg 87%

    Morgen, 13 Dezember, Mittwoch

    Zeit Temperatur Niederschläge Wind Luftdruck Luftfeuchtigkeit
    00:00 -2°C° 0 mm 4 m/S 743 mmHg 87%
    01:00 -2°C° 0 mm 4 m/S 743 mmHg 87%
    02:00 -2°C° 0 mm 4 m/S 743 mmHg 86%
    03:00 -2°C° 0 mm 4 m/S 743 mmHg 86%
    04:00 -2°C° 0 mm 4 m/S 743 mmHg 85%
    05:00 -2°C° 0 mm 5 m/S 743 mmHg 85%
    06:00 -2°C° 0 mm 5 m/S 743 mmHg 84%
    07:00 -2°C° 0 mm 5 m/S 743 mmHg 84%
    08:00 -2°C° 0 mm 6 m/S 742 mmHg 81%
    09:00 -2°C° 0 mm 6 m/S 742 mmHg 79%
    10:00 -1°C° 0 mm 7 m/S 742 mmHg 76%
    11:00 -1°C° 0 mm 7 m/S 741 mmHg 74%
    12:00 0°C° 0 mm 8 m/S 740 mmHg 72%
    13:00 +1°C° 0 mm 8 m/S 739 mmHg 70%
    14:00 0°C° 0,1 mm 8 m/S 738 mmHg 71%
    15:00 0°C° 0,1 mm 8 m/S 737 mmHg 73%
    16:00 0°C° 0,1 mm 8 m/S 736 mmHg 74%
    17:00 0°C° 0,3 mm 8 m/S 735 mmHg 76%
    18:00 0°C° 0,3 mm 8 m/S 735 mmHg 78%
    19:00 0°C° 0,3 mm 8 m/S 734 mmHg 80%
    20:00 +1°C° 0,2 mm 8 m/S 733 mmHg 80%
    21:00 +1°C° 0,2 mm 8 m/S 732 mmHg 81%
    22:00 +2°C° 0,2 mm 8 m/S 731 mmHg 81%
    23:00 +2°C° 0,1 mm 8 m/S 730 mmHg 81%

    übermorgen, 14 Dezember, Donnerstag

    Zeit Temperatur Niederschläge Wind Luftdruck Luftfeuchtigkeit
    00:00 +3°C° 0,1 mm 9 m/S 729 mmHg 80%
    01:00 +3°C° 0,1 mm 9 m/S 728 mmHg 79%
    02:00 +4°C° 0,6 mm 8 m/S 728 mmHg 80%
    03:00 +3°C° 0,6 mm 7 m/S 728 mmHg 82%
    04:00 +3°C° 0,6 mm 5 m/S 728 mmHg 83%
    05:00 +3°C° 0,1 mm 6 m/S 727 mmHg 82%
    06:00 +2°C° 0,1 mm 7 m/S 727 mmHg 81%
    07:00 +2°C° 0,1 mm 7 m/S 727 mmHg 79%
    08:00 0°C° 0,1 mm 8 m/S 728 mmHg 74%
    09:00 0°C° 0,1 mm 9 m/S 728 mmHg 69%
    10:00 0°C° 0,1 mm 10 m/S 729 mmHg 64%
    11:00 0°C° 0 mm 10 m/S 730 mmHg 62%
    12:00 0°C° 0 mm 9 m/S 730 mmHg 61%
    13:00 +1°C° 0 mm 9 m/S 730 mmHg 59%
    14:00 0°C° 0 mm 7 m/S 730 mmHg 63%
    15:00 +1°C° 0 mm 6 m/S 730 mmHg 67%
    16:00 0°C° 0 mm 5 m/S 729 mmHg 72%
    17:00 0°C° 0,1 mm 4 m/S 728 mmHg 75%
    18:00 0°C° 0,1 mm 4 m/S 728 mmHg 79%
    19:00 0°C° 0,1 mm 4 m/S 727 mmHg 83%
    20:00 0°C° 0,2 mm 4 m/S 726 mmHg 84%
    21:00 +1°C° 0,2 mm 5 m/S 725 mmHg 84%
    22:00 +1°C° 0,2 mm 5 m/S 724 mmHg 85%
    23:00 +1°C° 0,3 mm 6 m/S 725 mmHg 84%

    15 Dezember, Freitag

    Zeit Temperatur Niederschläge Wind Luftdruck Luftfeuchtigkeit
    00:00 0°C° 0,3 mm 8 m/S 725 mmHg 82%
    01:00 0°C° 0,3 mm 9 m/S 725 mmHg 81%
    02:00 -1°C° 0,2 mm 8 m/S 726 mmHg 81%
    03:00 -1°C° 0,2 mm 7 m/S 726 mmHg 82%
    04:00 -2°C° 0,2 mm 6 m/S 727 mmHg 82%
    05:00 -1°C° 0 mm 5 m/S 727 mmHg 84%
    06:00 -1°C° 0 mm 5 m/S 728 mmHg 85%
    07:00 -2°C° 0 mm 4 m/S 728 mmHg 87%
    08:00 -1°C° 0,1 mm 4 m/S 728 mmHg 86%
    09:00 0°C° 0,1 mm 5 m/S 728 mmHg 85%
    10:00 0°C° 0,1 mm 5 m/S 728 mmHg 84%
    11:00 +1°C° 0,3 mm 5 m/S 728 mmHg 83%
    12:00 +1°C° 0,3 mm 6 m/S 728 mmHg 81%
    13:00 +1°C° 0,3 mm 6 m/S 728 mmHg 80%
    14:00 +1°C° 0,1 mm 5 m/S 728 mmHg 81%
    15:00 +1°C° 0,1 mm 5 m/S 728 mmHg 82%
    16:00 +1°C° 0,1 mm 5 m/S 728 mmHg 83%
    17:00 +1°C° 0,1 mm 5 m/S 728 mmHg 85%
    18:00 0°C° 0,1 mm 4 m/S 728 mmHg 86%
    19:00 0°C° 0,1 mm 4 m/S 729 mmHg 88%
    20:00 0°C° 0,1 mm 4 m/S 729 mmHg 89%
    21:00 0°C° 0,1 mm 4 m/S 730 mmHg 89%
    22:00 -1°C° 0,1 mm 4 m/S 730 mmHg 90%
    23:00 -1°C° 0 mm 4 m/S 731 mmHg 90%

    16 Dezember, Samstag

    Zeit Temperatur Niederschläge Wind Luftdruck Luftfeuchtigkeit
    00:00 -2°C° 0 mm 4 m/S 731 mmHg 90%
    01:00 -2°C° 0 mm 4 m/S 732 mmHg 91%
    02:00 -2°C° 0 mm 4 m/S 732 mmHg 91%
    03:00 -2°C° 0 mm 4 m/S 733 mmHg 90%
    04:00 -1°C° 0 mm 4 m/S 733 mmHg 90%
    05:00 -1°C° 0 mm 5 m/S 734 mmHg 89%
    06:00 -1°C° 0 mm 5 m/S 734 mmHg 89%
    07:00 -2°C° 0 mm 6 m/S 735 mmHg 88%
    08:00 -2°C° 0,1 mm 6 m/S 735 mmHg 88%
    09:00 0°C° 0,1 mm 5 m/S 736 mmHg 87%
    10:00 0°C° 0,1 mm 5 m/S 736 mmHg 86%
    11:00 0°C° 0,1 mm 5 m/S 737 mmHg 85%
    12:00 +1°C° 0,1 mm 6 m/S 737 mmHg 84%
    13:00 +1°C° 0,1 mm 6 m/S 737 mmHg 82%
    14:00 +1°C° 0,3 mm 5 m/S 737 mmHg 84%
    15:00 0°C° 0,3 mm 5 m/S 738 mmHg 86%
    16:00 0°C° 0,3 mm 4 m/S 738 mmHg 88%
    17:00 0°C° 0,1 mm 4 m/S 738 mmHg 89%
    18:00 -1°C° 0,1 mm 4 m/S 739 mmHg 89%
    19:00 -1°C° 0,1 mm 4 m/S 739 mmHg 89%
    20:00 -1°C° 0 mm 5 m/S 739 mmHg 89%
    21:00 -2°C° 0 mm 5 m/S 740 mmHg 89%
    22:00 -2°C° 0 mm 5 m/S 740 mmHg 89%
    23:00 -2°C° 0 mm 5 m/S 740 mmHg 89%

    17 Dezember, Sonntag

    Zeit Temperatur Niederschläge Wind Luftdruck Luftfeuchtigkeit
    00:00 -2°C° 0 mm 5 m/S 741 mmHg 89%
    01:00 -2°C° 0 mm 5 m/S 741 mmHg 89%
    02:00 -2°C° 0 mm 5 m/S 741 mmHg 89%
    03:00 -2°C° 0 mm 5 m/S 742 mmHg 89%
    04:00 -2°C° 0 mm 5 m/S 742 mmHg 89%
    05:00 -2°C° 0,1 mm 5 m/S 742 mmHg 89%
    06:00 -2°C° 0,1 mm 5 m/S 743 mmHg 88%
    07:00 -2°C° 0,1 mm 5 m/S 743 mmHg 88%
    08:00 -2°C° 0,1 mm 5 m/S 744 mmHg 88%
    09:00 -2°C° 0,1 mm 5 m/S 744 mmHg 87%
    10:00 -3°C° 0,1 mm 6 m/S 745 mmHg 86%
    11:00 -2°C° 0,1 mm 6 m/S 745 mmHg 85%
    12:00 -2°C° 0,1 mm 6 m/S 745 mmHg 85%
    13:00 -1°C° 0,1 mm 6 m/S 746 mmHg 84%
    14:00 0°C° 0,1 mm 5 m/S 746 mmHg 85%
    15:00 0°C° 0,1 mm 5 m/S 746 mmHg 86%
    16:00 -1°C° 0,1 mm 4 m/S 747 mmHg 87%
    17:00 -1°C° 0 mm 4 m/S 747 mmHg 88%
    18:00 -1°C° 0 mm 4 m/S 748 mmHg 89%
    19:00 -2°C° 0 mm 4 m/S 748 mmHg 91%
    20:00 -2°C° 0 mm 4 m/S 748 mmHg 91%
    21:00 -2°C° 0 mm 4 m/S 749 mmHg 92%
    22:00 -3°C° 0 mm 4 m/S 749 mmHg 92%
    23:00 -2°C° 0 mm 3 m/S 749 mmHg 92%
    Mehr zeigen